Wind_Speed
36 42 48 50 51 51 50 48 41 40 40 43 44 43 39 40 37 41 37 33 29 26 22 19 17 14 9 12 12 12 3 15 21 21 15 12 13 14 15 16 13 11 10
40 42 43 47 50 50 47 45 44 39 40 43 45 47 46 48 47 47 43 41 37 31 26 24 20 17 13 10 9 10 8 4 2 4 9 11 12 13 13 12 11 13 12
44 47 47 45 44 45 45 45 43 42 42 44 46 47 51 52 52 52 57 56 46 39 33 30 25 22 18 15 10 9 6 4 4 3 8 10 10 10 11 11 12 14 17
48 49 48 46 42 40 41 42 41 42 43 44 44 47 50 51 54 55 57 65 51 47 40 36 31 24 21 20 15 15 11 9 6 9 10 10 10 11 14 14 16 19 22
49 48 46 44 42 39 38 38 40 42 44 45 44 44 50 52 50 53 53 60 55 49 44 42 33 29 27 23 22 22 19 15 13 12 15 14 15 12 14 14 19 16 19
48 45 41 41 41 37 36 36 37 39 40 44 43 45 50 51 51 48 51 53 39 57 55 45 36 36 32 28 25 26 24 21 19 15 17 18 17 16 17 17 17 19 21
46 41 38 37 35 35 37 36 37 40 38 40 41 44 47 48 47 43 44 47 44 41 32 30 37 30 30 31 27 26 28 27 23 22 21 22 20 21 21 22 23 22 24
41 37 36 35 33 37 38 36 37 37 40 39 43 43 45 46 42 43 45 42 47 51 49 45 34 29 29 31 31 30 29 31 29 20 26 26 24 25 26 27 26 26 27
38 35 35 35 35 39 36 37 33 29 27 33 38 43 44 44 42 45 41 40 48 51 54 46 24 29 34 33 33 35 32 30 32 32 26 27 26 28 25 30 33 31 24
35 33 33 34 37 37 32 29 28 27 28 28 30 34 38 41 41 40 38 39 38 38 35 26 29 31 34 33 33 33 31 34 35 32 34 30 32 31 30 28 31 33 25
35 32 31 29 34 22 18 17 23 21 24 26 28 27 30 38 42 45 44 41 41 44 38 35 32 36 37 35 37 31 32 36 38 37 31 29 27 25 33 33 33 31 25
33 30 29 31 31 18 17 20 23 25 22 21 24 32 32 37 41 44 43 45 45 46 44 42 44 41 38 36 37 39 37 35 37 37 33 31 31 34 35 41 40 33 28
31 27 26 27 29 21 20 20 23 23 23 23 27 31 36 33 32 48 41 46 48 47 46 44 42 42 41 42 40 42 41 39 36 38 36 32 33 34 36 39 39 28 32
26 28 27 21 23 16 18 19 21 24 25 28 32 34 32 34 34 24 29 38 42 45 45 45 48 47 46 45 43 44 43 40 39 38 34 32 32 39 38 37 31 35 33
28 26 23 18 11 17 17 20 19 20 18 16 17 19 26 32 21 20 25 27 36 41 43 44 44 45 47 47 47 46 44 39 36 36 37 36 37 43 40 41 41 31 29
27 22 20 21 17 15 21 19 19 13 10 11 11 10 11 13 23 31 29 27 29 34 39 40 40 42 44 45 45 41 40 38 38 38 35 35 35 37 39 33 32 24 19
29 16 19 22 16 15 18 20 18 15 13 11 13 14 14 11 14 13 27 32 30 29 27 35 38 40 42 41 38 38 37 38 36 33 31 26 23 26 28 27 25 26 27
15 9 16 20 19 15 20 27 25 21 15 13 13 14 15 13 12 11 9 10 16 26 31 32 32 35 37 38 37 38 36 33 29 28 25 30 27 23 24 26 27 24 22
8 10 10 16 17 18 17 24 26 22 18 15 15 15 15 15 15 15 14 11 12 14 17 19 22 25 26 26 27 29 30 27 30 30 30 29 28 27 25 24 22 19 18
13 12 10 18 20 17 20 22 25 26 22 19 20 18 15 15 15 16 16 14 14 14 15 15 15 16 17 19 20 22 23 24 24 25 26 26 26 25 23 21 19 19 18
16 14 13 12 13 14 18 22 27 27 26 22 20 17 17 17 17 18 16 16 17 19 18 18 17 17 16 18 19 20 21 22 23 23 24 25 25 24 23 22 21 19 17
12 13 12 10 10 16 19 18 20 21 22 21 20 22 22 21 19 19 18 18 17 18 19 20 20 19 19 20 21 21 22 23 24 24 24 26 28 29 28 26 24 21 18
13 14 15 15 16 15 15 18 19 20 21 21 18 22 22 23 22 20 19 21 21 20 21 21 20 19 21 22 22 22 21 21 22 26 28 29 30 30 28 28 25 23 23
13 13 16 17 16 18 18 17 16 18 19 19 18 20 21 22 22 21 20 21 23 22 22 23 21 21 23 24 24 24 24 25 28 29 29 31 33 31 29 29 28 27 27
17 21 15 14 14 15 17 17 17 20 19 18 18 19 21 23 23 20 20 21 22 23 23 25 25 25 25 26 25 24 24 24 25 26 28 29 31 31 32 32 32 33 33
16 22 19 16 19 19 17 17 15 18 17 18 20 20 19 21 24 23 23 24 24 23 24 25 27 28 27 26 27 28 29 29 30 30 31 32 33 35 37 37 37 38 39
Wind_Direction
286 275 274 275 274 276 277 278 273 264 254 251 249 248 239 232 231 227 219 223 228 222 217 225 235 238 260 310 316 353 278 226 229 214 222 232 253 265 260 260 258 260 272
287 283 278 280 280 279 277 273 271 261 254 254 249 245 234 233 244 234 225 216 218 223 222 221 224 231 238 257 287 335 350 22 106 155 221 236 241 244 246 244 253 268 271
290 287 286 281 278 279 276 273 266 260 251 249 248 245 236 238 245 246 228 233 215 212 219 223 227 230 237 236 252 270 287 307 309 288 231 233 246 263 269 269 266 273 281
289 289 285 283 281 278 278 271 265 255 249 245 246 243 237 243 244 245 249 245 220 214 212 218 223 226 232 238 231 244 260 275 267 277 274 270 277 293 287 292 292 289 293
289 287 284 281 281 277 276 269 263 258 252 249 246 242 240 242 245 249 252 258 231 218 206 216 215 225 231 233 230 237 251 251 264 261 273 278 277 281 284 289 286 298 302
289 289 287 281 279 278 276 267 262 263 258 253 251 244 245 244 244 250 252 252 265 239 209 204 211 221 230 236 233 231 241 247 254 259 268 273 271 275 278 281 282 286 292
290 288 286 280 277 276 277 267 259 258 252 248 246 245 247 243 244 246 253 255 260 233 219 200 206 211 226 233 237 235 239 250 244 252 255 266 266 268 272 280 289 284 286
289 284 286 280 276 277 275 270 261 259 249 245 242 241 242 243 245 252 255 255 249 233 219 213 212 214 226 234 239 242 243 244 252 255 260 263 271 273 272 270 275 270 292
286 280 284 279 283 281 275 267 261 259 240 241 244 241 239 241 244 253 255 249 243 232 235 242 209 213 228 232 239 244 244 250 259 258 274 271 276 274 273 274 284 296 280
288 283 283 283 281 284 267 270 248 250 243 239 241 240 240 241 245 249 251 246 244 247 236 229 218 229 237 246 239 242 250 253 262 263 273 272 275 266 273 287 282 286 266
285 283 283 280 291 270 274 261 236 239 250 243 239 241 244 248 250 248 246 243 237 243 233 229 233 234 237 245 257 252 255 258 265 266 275 274 269 271 279 284 289 286 269
284 282 283 283 293 262 268 255 250 245 244 251 254 252 248 247 247 242 240 239 235 235 234 229 237 238 243 248 251 252 256 256 260 267 275 280 279 277 277 279 284 281 271
286 281 279 278 284 249 249 269 260 250 255 269 266 264 253 254 259 250 250 236 232 234 235 234 233 236 240 245 248 250 256 257 261 264 270 273 273 270 273 277 272 260 276
282 285 282 276 264 241 258 259 259 246 246 255 263 266 254 256 247 252 245 233 232 233 232 234 237 240 241 245 247 252 255 261 264 266 268 267 268 265 269 270 267 276 263
302 289 268 243 246 251 251 251 245 245 248 263 280 278 250 248 222 223 249 234 232 228 232 236 237 238 242 246 248 252 257 260 259 264 263 267 266 264 265 261 276 290 263
295 283 257 225 239 233 228 235 234 223 237 259 291 312 275 258 238 226 232 243 239 234 230 231 233 239 244 248 252 254 257 259 257 253 257 266 264 264 265 262 265 269 259
305 271 256 208 242 249 232 241 238 234 249 251 258 253 270 279 300 268 226 239 238 230 239 238 239 239 241 244 246 250 254 253 249 251 254 260 264 255 254 256 261 260 254
299 265 213 216 228 244 244 247 236 228 241 249 252 257 253 260 259 270 295 273 231 224 226 228 232 235 239 242 244 246 244 240 251 255 255 255 257 248 244 246 249 253 254
273 272 239 227 240 246 234 232 240 225 233 245 252 253 252 252 247 239 233 233 237 235 234 230 228 229 234 237 240 242 242 250 246 245 248 242 240 241 238 239 239 238 238
282 284 276 249 237 237 233 235 241 228 237 246 248 243 240 246 247 249 246 244 244 238 234 236 234 232 231 233 234 234 230 229 228 230 232 233 234 236 231 227 222 223 224
273 275 268 214 230 225 220 233 238 238 228 235 249 250 245 243 242 242 247 248 246 246 243 237 235 234 235 233 230 230 231 231 229 227 231 233 226 223 214 210 214 219 229
268 249 232 209 225 232 234 233 235 234 237 241 242 250 254 253 247 251 251 249 245 250 247 246 244 242 241 240 240 239 237 238 237 231 224 222 220 211 213 214 222 231 241
241 256 250 219 220 239 244 237 244 244 241 239 241 244 246 255 257 253 254 255 253 250 249 247 246 244 245 244 241 237 231 230 231 233 232 228 219 221 224 231 237 245 255
283 264 254 240 229 237 240 240 242 247 248 247 242 249 248 247 248 250 250 252 253 252 251 253 247 240 239 243 239 236 235 232 235 236 230 226 225 233 239 243 248 257 259
288 277 249 265 239 241 249 249 242 245 251 254 251 251 257 258 255 253 253 252 253 254 251 249 247 241 236 237 241 240 235 235 239 240 240 239 241 246 251 257 259 258 259
274 264 233 237 244 239 235 246 250 257 259 262 260 255 256 258 262 256 249 248 251 251 251 248 251 254 251 247 243 242 244 246 247 248 250 253 256 259 260 260 258 260 262
Height
5852 5849 5844 5842 5839 5836 5835 5834 5836 5837 5840 5843 5847 5852 5857 5864 5865 5867 5869 5872 5874 5873 5873 5879 5880 5881 5881 5881 5880 5876 5874 5873 5874 5878 5881 5884 5884 5886 5886 5887 5888 5887 5886
5839 5835 5832 5828 5824 5822 5821 5821 5821 5824 5827 5829 5833 5836 5842 5848 5852 5857 5860 5859 5863 5867 5867 5868 5872 5875 5876 5877 5878 5877 5875 5873 5872 5874 5879 5882 5883 5883 5883 5883 5884 5884 5884
5824 5819 5816 5815 5811 5809 5807 5805 5807 5808 5812 5815 5818 5823 5828 5832 5835 5839 5842 5842 5839 5850 5857 5861 5865 5866 5869 5872 5874 5874 5875 5875 5874 5875 5876 5877 5878 5879 5880 5881 5881 5881 5880
5810 5805 5802 5799 5797 5795 5794 5792 5793 5794 5796 5800 5804 5808 5812 5815 5820 5822 5825 5826 5832 5838 5840 5849 5854 5858 5860 5864 5868 5870 5870 5871 5871 5872 5873 5874 5875 5875 5875 5876 5876 5876 5875
5796 5791 5788 5786 5783 5782 5782 5780 5780 5781 5784 5786 5791 5795 5797 5800 5806 5810 5813 5811 5816 5823 5823 5838 5841 5848 5852 5853 5859 5861 5864 5865 5866 5867 5868 5869 5869 5870 5870 5869 5869 5868 5867
5783 5778 5776 5774 5771 5769 5768 5767 5767 5769 5771 5773 5778 5782 5782 5787 5793 5798 5801 5801 5803 5803 5809 5804 5825 5837 5842 5847 5847 5852 5857 5859 5858 5859 5861 5862 5862 5864 5863 5863 5862 5862 5860
5769 5767 5764 5762 5759 5757 5755 5755 5755 5755 5758 5760 5764 5768 5769 5773 5778 5786 5786 5785 5789 5794 5795 5798 5813 5820 5831 5837 5840 5842 5847 5848 5849 5850 5852 5852 5854 5855 5855 5855 5855 5855 5854
5758 5755 5753 5750 5748 5746 5744 5742 5742 5743 5746 5748 5751 5755 5758 5762 5769 5774 5776 5778 5783 5788 5793 5803 5801 5807 5821 5826 5831 5834 5836 5839 5841 5842 5843 5844 5847 5847 5848 5848 5848 5847 5846
5746 5744 5742 5740 5738 5735 5732 5730 5731 5733 5734 5737 5738 5742 5747 5753 5760 5761 5765 5769 5773 5777 5777 5752 5783 5798 5811 5815 5820 5824 5827 5831 5831 5834 5835 5836 5836 5837 5839 5838 5838 5837 5835
5735 5732 5731 5729 5727 5723 5720 5716 5720 5722 5725 5728 5730 5733 5738 5744 5749 5753 5755 5758 5762 5765 5766 5772 5781 5791 5800 5805 5811 5814 5819 5822 5822 5824 5826 5827 5827 5827 5829 5829 5828 5827 5826
5725 5723 5721 5719 5717 5713 5712 5711 5715 5717 5718 5720 5721 5724 5728 5733 5737 5741 5745 5748 5753 5757 5762 5767 5773 5783 5791 5796 5801 5806 5810 5811 5810 5812 5814 5816 5816 5817 5817 5817 5819 5819 5817
5714 5713 5712 5710 5707 5706 5707 5708 5708 5710 5711 5712 5713 5715 5717 5720 5723 5727 5733 5738 5742 5749 5751 5757 5768 5776 5782 5788 5791 5795 5799 5801 5800 5803 5805 5806 5808 5808 5808 5806 5806 5808 5811
5707 5705 5703 5701 5699 5700 5701 5702 5704 5706 5708 5708 5707 5708 5709 5713 5716 5716 5721 5725 5732 5739 5743 5750 5758 5766 5772 5776 5779 5783 5787 5790 5791 5793 5795 5797 5797 5796 5798 5797 5797 5798 5800
5699 5698 5695 5693 5692 5694 5696 5697 5697 5699 5701 5702 5702 5698 5701 5704 5705 5707 5711 5715 5720 5727 5734 5741 5748 5755 5760 5764 5768 5772 5775 5778 5780 5782 5784 5786 5786 5786 5787 5788 5788 5789 5790
5691 5688 5686 5688 5688 5689 5691 5693 5694 5695 5696 5696 5696 5693 5694 5697 5693 5698 5703 5706 5711 5717 5724 5730 5737 5742 5748 5752 5756 5760 5763 5766 5768 5770 5772 5774 5774 5775 5775 5776 5778 5778 5781
5682 5679 5679 5681 5684 5686 5687 5689 5690 5691 5693 5693 5692 5692 5691 5690 5692 5695 5698 5701 5704 5710 5715 5720 5725 5731 5736 5740 5744 5748 5750 5753 5756 5758 5760 5762 5763 5764 5765 5767 5770 5771 5771
5674 5670 5672 5675 5679 5682 5682 5684 5686 5688 5688 5689 5690 5690 5691 5692 5692 5691 5692 5696 5699 5706 5708 5710 5714 5719 5724 5728 5732 5736 5738 5740 5744 5746 5749 5751 5753 5753 5755 5757 5759 5760 5761
5667 5666 5667 5672 5675 5677 5678 5678 5680 5683 5685 5686 5687 5688 5689 5689 5690 5690 5691 5692 5694 5696 5699 5701 5705 5710 5714 5717 5720 5723 5727 5730 5733 5737 5739 5743 5745 5744 5746 5748 5749 5751 5752
5665 5664 5665 5668 5670 5671 5672 5673 5676 5679 5681 5682 5683 5684 5685 5686 5688 5689 5691 5692 5693 5695 5695 5697 5699 5702 5705 5708 5711 5714 5717 5721 5724 5727 5731 5734 5735 5736 5737 5738 5740 5742 5744
5662 5661 5661 5662 5664 5666 5668 5670 5672 5674 5676 5677 5678 5680 5681 5682 5684 5685 5686 5688 5689 5691 5692 5694 5695 5696 5699 5702 5704 5707 5710 5713 5716 5718 5721 5724 5728 5730 5731 5732 5734 5737 5739
5659 5658 5658 5659 5661 5663 5663 5664 5668 5671 5672 5673 5674 5676 5677 5679 5679 5680 5682 5684 5685 5686 5688 5690 5692 5693 5695 5698 5701 5703 5705 5707 5710 5712 5715 5717 5721 5723 5725 5727 5729 5731 5732
5656 5654 5655 5657 5658 5659 5659 5662 5663 5665 5667 5669 5671 5672 5672 5673 5675 5677 5677 5678 5681 5681 5683 5685 5687 5688 5690 5692 5695 5697 5700 5701 5703 5706 5708 5710 5713 5715 5717 5719 5721 5722 5723
5651 5653 5654 5652 5652 5655 5657 5658 5659 5661 5663 5664 5666 5666 5668 5669 5669 5671 5672 5672 5674 5676 5677 5678 5681 5683 5684 5686 5687 5690 5692 5694 5697 5698 5701 5704 5706 5708 5710 5711 5712 5713 5714
5649 5648 5650 5652 5653 5653 5653 5654 5655 5656 5657 5660 5661 5661 5662 5663 5664 5666 5667 5667 5668 5669 5670 5671 5675 5677 5678 5679 5681 5684 5687 5688 5689 5691 5694 5696 5698 5700 5701 5702 5702 5702 5703
5645 5644 5646 5650 5649 5650 5650 5652 5651 5651 5652 5656 5656 5657 5658 5658 5658 5662 5663 5663 5663 5665 5666 5666 5668 5670 5672 5674 5675 5677 5679 5681 5681 5683 5684 5686 5688 5689 5690 5690 5691 5691 5692
5641 5640 5639 5643 5644 5645 5646 5647 5648 5648 5649 5650 5652 5652 5654 5654 5654 5655 5658 5658 5659 5659 5659 5661 5662 5663 5665 5666 5667 5669 5669 5671 5672 5674 5675 5676 5677 5677 5678 5679 5679 5679 5678